Location: Beneden-Haastrecht
(52.0012°N, 4.7557°E)
Time: 03:18:01
(UTC+00:00)

Okean O Rocket - Pass Details

Date: 24 October 2020
Orbit: 623 x 644 km, 98.2° (Epoch: 27 November)

Event Time Altitude Azimuth Distance (km) Brightness Sun altitude
Rises 17:11:54 0° 174° (S) 2,914 5.1 -7.5°
Reaches altitude 10° 17:14:07 10° 178° (S) 2,008 4.3 -7.8°
Maximum altitude 17:18:26 59° 258° (WSW) 730 2.3 -8.5°
Drops below altitude 10° 17:22:46 10° 339° (NNW) 2,013 4.4 -9.1°
Sets 17:25:00 0° 343° (NNW) 2,923 5.1 -9.5°
